User: anonymous   Login
Location: Home
(42.5358°N, 72.7383°W)
Time: 16:27:50
(UTC-05:00)
Language:

DELFI C3 - Orbit

View from above orbital plane
View from above orbital plane
View from above satellite
View from above satellite

Ground track
Ground track

The orbit data is extracted from the following two-line orbital elements,

1 32789U 08021G   22021.55825801  .00005053  00000-0  31012-3 0  9994
2 32789  97.3560  53.4317 0012874 109.5386 250.7235 15.10470175749733
Epoch (UTC): 21 January 2022 13:23:53
Eccentricity: 0.0012874
inclination: 97.3560°
perigee height: 526 km
apogee height: 543 km
right ascension of ascending node: 53.4317°
argument of perigee: 109.5386°
revolutions per day: 15.10470175
mean anomaly at epoch: 250.7235°
orbit number at epoch: 74973

The dashed part of the orbit path shows where the satellite is in the earth's shadow,  

DLR